[Iaude] MPEC M16: 2022 MD [a=1.42,e=0.28,i=12.7,H=24.1]

mpec at marsden.cfa.harvard.edu mpec at marsden.cfa.harvard.edu
Sat Jun 18 21:07:37 EDT 2022


M.P.E.C. 2022-M16                                 Issued 2022 June 19, 01:06 UT

     The Minor Planet Electronic Circulars contain information on unusual
         minor planets and routine data on comets.  They are published
    on behalf of Division F of the International Astronomical Union by the
          Minor Planet Center, Smithsonian Astrophysical Observatory,
                          Cambridge, MA 02138, U.S.A.

             Prepared using the Tamkin Foundation Computer Network

                              MPC at CFA.HARVARD.EDU
            URL https://www.minorplanetcenter.net/    ISSN 1523-6714

                                    2022 MD                                     


Observations:
     K22M00D* C2022 06 17.24457616 17 34.066+49 42 10.55         20.25GVEM016G96
     K22M00D  C2022 06 17.24980616 17 36.442+49 41 24.68         20.59GVEM016G96
     K22M00D  C2022 06 17.25505716 17 38.825+49 40 38.78         20.89GVEM016G96
     K22M00D  C2022 06 17.26029016 17 41.150+49 39 52.96               VEM016G96
     K22M00D 1C2022 06 17.89231416 23 23.976+48 03 12.72         20.7 GVEM016Z84
     K22M00D 1C2022 06 17.90534016 23 30.052+48 01 10.70         20.2 GVEM016Z84
     K22M00D KC2022 06 17.91898 16 23 33.44 +47 58 44.2          20.3 GVEM016104
     K22M00D KC2022 06 17.94185416 23 46.52 +47 55 06.0          19.8 GXEM016958
     K22M00D KC2022 06 17.94759816 23 49.22 +47 54 10.6          19.5 GXEM016958
     K22M00D KC2022 06 17.95334616 23 52.03 +47 53 16.3          19.9 GXEM016958
     K22M00D KC2022 06 17.95355 16 23 49.71 +47 53 08.4          20.5 GVEM016104
     K22M00D KC2022 06 17.97006 16 23 57.42 +47 50 25.7          19.6 GVEM016104
     K22M00D KC2022 06 18.06794716 24 47.546+47 33 55.40         20.3 GVEM016J95
     K22M00D BC2022 06 18.07697916 24 52.104+47 32 23.39         20.0 GVEM016J95
     K22M00D KC2022 06 18.13773516 25 21.023+47 23 05.82         20.8 GVEM016Z31
     K22M00D KC2022 06 18.14248816 25 23.358+47 22 16.26         20.2 GVEM016Z31
     K22M00D KC2022 06 18.14726016 25 25.710+47 21 26.30         20.1 GVEM016Z31
     K22M00D  C2022 06 18.22275616 26 22.266+47 09 14.30         20.2 GVEM016654
     K22M00D  C2022 06 18.24102716 26 30.726+47 06 12.82         20.5 GVEM016654
     K22M00D  C2022 06 18.26436416 26 41.547+47 02 18.49         20.5 GVEM016654
     K22M00D KC2022 06 18.27205 16 26 40.52 +47 00 42.3          20.0 RqEM016H36
     K22M00D KC2022 06 18.27958 16 26 44.05 +46 59 23.5          19.7 RqEM016H36
     K22M00D KC2022 06 18.28705 16 26 47.67 +46 58 05.3          19.7 RqEM016H36
     K22M00D KC2022 06 18.29446 16 26 51.12 +46 56 49.4          20.2 RqEM016H36
     K22M00D KC2022 06 18.87312616 32 17.38 +45 13 59.0          19.7 GXEM016595
     K22M00D IC2022 06 18.88522516 32 23.18 +45 11 45.9                XEM016595
     K22M00D KC2022 06 18.89416516 32 27.49 +45 10 07.9          20.1 GVEM016L01
     K22M00D KC2022 06 18.89510616 32 27.87 +45 09 42.1          19.5 GVEM016G34
     K22M00D KC2022 06 18.89512716 32 27.92 +45 09 57.4          20.2 GVEM016L01
     K22M00D KC2022 06 18.89609016 32 28.38 +45 09 46.3          20.2 GVEM016L01
     K22M00D KC2022 06 18.89705216 32 28.90 +45 09 35.8          20.1 GVEM016L01
     K22M00D KC2022 06 18.89730616 32 29.02 +45 09 30.8          19.7 GXEM016595
     K22M00D KC2022 06 18.89897616 32 29.80 +45 09 14.7          20.3 GVEM016L01
     K22M00D KC2022 06 18.91068016 32 35.48 +45 06 47.4          19.4 GVEM016G34
     K22M00D KC2022 06 18.91416 16 32 36.92 +45 06 38.8          19.8 VqEM016C82
     K22M00D KC2022 06 18.91846716 32 39.35 +45 05 20.6          19.4 GVEM016G34
     K22M00D KC2022 06 18.92542 16 32 42.44 +45 04 32.0          20.5 VqEM016C82
     K22M00D KC2022 06 18.92625416 32 43.14 +45 03 52.8          19.1 GVEM016G34
     K22M00D KC2022 06 18.93255 16 32 47.04 +45 02 59.4          19.9 GXEM016G15
     K22M00D KC2022 06 18.94077 16 32 50.92 +45 01 27.2          19.1 GXEM016G15
     K22M00D KC2022 06 18.95014 16 32 55.51 +44 59 41.0          19.5 GXEM016G15
     K22M00D KC2022 06 18.95838416 32 59.172+44 58 09.11         19.7 GVEM016K63
     K22M00D KC2022 06 18.97996416 33 09.620+44 54 03.06         20.6 GVEM016K63
     K22M00D KC2022 06 18.98724416 33 13.178+44 52 38.63         20.7 GVEM016K63

Observer details:
104 San Marcello Pistoiese.  Observers P. Bacci, M. Maestripieri, M. D.
    Grazia, L. Crimini.  Measurer P. Bacci.  0.60-m F/4 Reflector + CCD.
595 Farra d'Isonzo.  Observer E. Pettarin.  0.61-m f/4.5 reflector + CCD.
654 Table Mountain Observatory, Wrightwood-PHMC.  Observers N. Evans, P. Choi,
    N. Saini, C. Zhai, R. Trahan, M. Shao.  1.0-m Reflector + CCD.
958 Observatoire de Dax.  Observer P. Dupouy.  0.50-m f/4.5 Reflector + CCD.
C82 Osservatorio Astronomico Nastro Verde, Sorrento.  Observer N. Ruocco.
    0.35 m f/6.3 Schmidt-Cassegrain + CCD.
G15 Magroforte Observatory, Alessandria.  Observer A. De Pieri.  0.23-m f/6.7
    SC + Ccd + CCD.
G34 Oberfrauendorf.  Observer T. Felber.  0.35-m f/6.3 Schmidt-Cassegrain +
    CCD.
G96 Mt. Lemmon Survey.  Observer A. Serrano.  Measurers E. J. Christensen, D.
    Fay, J. B. Fazekas, D. C. Fuls, A. R. Gibbs, A. D. Grauer, H. Groeller, J.
    K. Hogan, R. A. Kowalski, S. M. Larson, G. J. Leonard, D. Rankin, R. L.
    Seaman, A. Serrano, F. C. Shelly, K. W. Wierzchos.  1.5-m reflector + 10K
    CCD.
H36 Sandlot Observatory, Scranton.  Observer G. Hug.  .56 meter Reflector +
    CCD.
J95 Great Shefford.  Observer P. Birtwhistle.  0.41-m f/6.3 Schmidt-Cassegrain
    + CCD.
K63 G. Pascoli Observatory, Castelvecchio Pascoli.  Observer R. Bacci.  0.41-m
    f/3.21 0.41m f/3.2  Newton + CCD.
L01 Visnjan Observatory, Tican.  Observer K. Korlevic.  1.0-m f/2.9 reflector
    + CCD.
Z31 Tenerife Observatory-LCO A, Tenerife.  Observers J. Chatelain, T. Lister,
    E. Gomez, S. Greenstreet.  Measurer T. Lister.  1.0-m f/8.0 Ritchey-
    Chretien + CCD.
Z84 Calar Alto-Schmidt.  Observers M. Micheli, R. Kresken, E. Schwab, L.
    Conversi, D. Koschny.  Measurer M. Micheli.  0.8-m f/3 Schmidt + CCD.

Orbital elements:
2022 MD                                                  Earth MOID = 0.0358 AU
Epoch 2022 Aug. 9.0 TT = JDT 2459800.5                  Veres                   
M  40.92559              (2000.0)            P               Q                  
n   0.58166814     Peri.  147.19032     -0.39922357     +0.89075388             
a   1.4213004      Node    98.45993     -0.88141326     -0.30763679             
e   0.2823425      Incl.   12.68522     -0.25245041     -0.33454018             
P   1.69           H   24.16          G   0.15           U   8                  
Residuals in seconds of arc
220617 G96  0.3-  0.5+    220618 Z31  0.3-  0.2+    220618 L01  0.1+  0.0
220617 G96  0.1+  0.1+    220618 Z31  0.3-  0.3+    220618 595  0.3-  0.3-
220617 G96  0.5+  0.0     220618 654  0.2+  0.1-    220618 L01  0.3-  0.3+
220617 G96  0.3+  0.0     220618 654  0.2-  0.1-    220618 G34  0.1-  0.2-
220617 Z84  0.1+  0.4-    220618 654  0.1-  0.0     220618 C82  1.1-  0.2+
220617 Z84  0.3+  0.2+    220618 H36  0.2+  0.2+    220618 G34  0.4+  0.3+
220617 104  0.4-  0.5-    220618 H36  0.2-  0.4-    220618 C82  0.4+  0.0
220617 958  0.1-  0.9+    220618 H36  0.5+  0.7-    220618 G34  0.1+  0.1-
220617 958  0.0   0.9+    220618 H36  0.3-  0.8+    220618 G15  0.9+  0.9-
220617 958  1.2+  2.3+    220618 595  0.5+  0.6+    220618 G15  0.0   0.5-
220617 104  0.0   0.2-    220618 595  0.2-  0.9+    220618 G15  0.6+  0.7-
220617 104  0.8-  0.4-    220618 L01  0.1-  0.1+    220618 K63  0.1+  0.5-
220618 J95 (0.6-  0.9+)   220618 G34  0.2+  0.9+    220618 K63  0.3-  0.4+
220618 J95  0.1+  0.7+    220618 L01  0.5-  0.2+    220618 K63  0.3-  0.2-
220618 Z31  0.3-  0.0     220618 L01  0.5-  0.2-

Ephemeris:
2022 MD                  a,e,i = 1.42, 0.28, 13                  q = 1.0200
Date    TT    R. A. (2000) Decl.     Delta      r    Elong.  Phase     V
2022 05 20    13 47 05.3 +68 10 52   0.1710  1.0241    89.3    81.1    23.2
...
2022 06 04    14 45 21.3 +64 33 17   0.1120  1.0205    90.0    83.7    22.4
...
2022 06 12    15 35 09.3 +58 35 57   0.07900 1.0259    95.5    80.1    21.5
...
2022 06 18    16 24 17.1 +47 45 37   0.05562 1.0332   106.6    70.4    20.4
2022 06 19    16 33 24.6 +44 50 28   0.05210 1.0347   109.6    67.7    20.2
2022 06 20    16 42 45.5 +41 26 49   0.04878 1.0362   113.1    64.4    20.0
...
2022 06 26    17 41 46.9 +08 23 21   0.03616 1.0470   147.0    31.9    18.4
...
2022 07 04    18 56 46.6 -38 38 56   0.05022 1.0651   164.2    15.0    18.6
...
2022 07 19    20 24 32.4 -60 00 10   0.1167  1.1088   140.5    35.6    21.2

M. P. C. Staff               (C) Copyright 2022 MPC           M.P.E.C. 2022-M16




More information about the Iaude mailing list